Regional Weather Roundup
Issued by NWS Jackson, KY

Home | Current Version | Previous Version | Graphics & Text | Print | Product List | Glossary On
Versions: 1 2 3 4 5 6 7 8 9 10 11 12 13 14 15 16 17 18 19 20 21 22 23 24 25 26 27 28 29 30 31 32 33 34 35 36 37 38 39 40 41 42 43 44 45 46 47 48 49 50
000
ASUS43 KJKL 281510
RWRJKL

EAST KENTUCKY HOURLY WEATHER ROUNDUP
NATIONAL WEATHER SERVICE JACKSON KY
1000 AM EST SAT FEB 28 2015

NOTE: "FAIR" INDICATES FEW OR NO CLOUDS BELOW 12,000 FEET WITH
NO SIGNIFICANT WEATHER AND/OR OBSTRUCTIONS TO VISIBILITY.

* THESE REPORTS ARE NOT UNDER NWS QUALITY CONTROL AND MAY NOT
  REPORT WEATHER SUCH AS PRECIPITATION AND FOG.

KYZ079-080-083-085-087-088-110-112-115-119-120-281600
...EASTERN KENTUCKY...

CITY           SKY/WX    TMP DP  RH WIND       PRES   REMARKS
JACKSON        MOSUNNY   24   8  50 VRB3      30.63R
LONDON         CLOUDY    25   9  50 E3        30.62R
SOMERSET*      CLOUDY    27  10  50 E6        30.65S WCI  20
MONTICELLO*    MOSUNNY   27  13  55 NE6       30.66R WCI  21
MIDDLESBORO*   CLOUDY    26  15  62 CALM      30.63R
HAZARD APT*    MOSUNNY   27  12  54 CALM      30.64
BLACK MTN*       N/A     25  19  80 S6          N/A  WCI  18
BIG SANDY*     CLOUDY    25  10  53 NE3       30.65F
MOREHEAD APT*  CLOUDY    21   5  49 NE7       30.70S WCI  13
$$

KYZ035-036-041-042-044-050-067-078-099-281600
...CENTRAL KENTUCKY...

CITY           SKY/WX    TMP DP  RH WIND       PRES   REMARKS
MT STERLING*   CLOUDY    21   9  58 E7        30.70R WCI  13
FLEMING/MASON* SUNNY     18   5  57 E9        30.71F WCI   6
DANVILLE*      PTSUNNY   21  10  63 E7        30.66S WCI  13
RICHMOND*      SUNNY     23   9  54 NE7       30.66S WCI  15
LEXINGTON      CLOUDY    21   8  57 E9        30.67S WCI  11
FRANKFORT        N/A     19   6  57 E8        30.68S WCI   9
$$

KYZ091>093-OHZ055-061-077-WVZ005-015-034-035-042-281600
...SOUTHERN OHIO/WEST VIRGINIA...

CITY           SKY/WX    TMP DP  RH WIND       PRES   REMARKS
COVINGTON      PTSUNNY   17   2  51 E7        30.71S WCI   8
COLUMBUS       PTSUNNY   15  -1  49 E8        30.75S WCI   4
DAYTON         MOSUNNY   15   1  53 SE14      30.72S WCI   0
WILMINGTON     CLOUDY    11  -1  58 E8        30.71R WCI  -1
HUNTINGTON       N/A     21   8  57 CALM      30.71R
CHARLESTON     PTSUNNY   22   8  55 N5        30.69S WCI  16
PINEVILLE*       N/A     28  14  55 MISG      30.65F
BECKLEY        SUNNY     20   7  57 SE13      30.57S WCI   7
BLUEFIELD      SUNNY     24   8  50 S9        30.56R WCI  14
$$

VAZ002-007-008-TNZ017-027-036-066-071-281600
...SOUTHWEST VIRGINIA/EAST TENNESSEE...

CITY           SKY/WX    TMP DP  RH WIND       PRES   REMARKS
WISE*          MOSUNNY   32  14  47 E5        30.53S WCI  27
JONESVILLE*    CLOUDY    25  10  54 CALM      30.63R
ABINGDON*      MOSUNNY   28  12  53 E10       30.58R WCI  18
BRISTOL        PTSUNNY   26  13  57 NE3       30.60S
KNOXVILLE      PTSUNNY   28  17  63 NE10      30.60R WCI  19
OAK RIDGE      MOSUNNY   32  15  49 VRB3      30.63R
CROSSVILLE     CLOUDY    31  17  56 SE8       30.54R WCI  23
NASHVILLE      CLOUDY    30  13  49 NE7       30.62R WCI  23
$$

...KEY TO REMARKS...
VSB - VISIBILITY IN MILES
WCI - WIND CHILL INDEX
HX  - HEAT INDEX

$$



USA.gov is the U.S. government's official web portal to all federal, state and local government web resources and services.